Altus AFB, OK

1:32 AM CDT on October 23, 2019 (GMT -0500)
Altus Air Force Base

Weather History for KLTS - August, 2019

Change the Weather History Date:

Thursday, August 1, 2019

  Actual Average Record
Temperature  
Mean Temperature 87 °F -  
Max Temperature 102 °F 95 °F 111 °F (2012)
Min Temperature 72 °F 71 °F 62 °F (2005)
Cooling Degree Days 22    
Growing Degree Days 37 (Base 50)    
Moisture  
Dew Point 64 °F    
Average Humidity 51    
Maximum Humidity 83    
Minimum Humidity 24    
Precipitation  
Precipitation 0.00 in - - ()
Sea Level Pressure  
Sea Level Pressure 29.95 in    
Wind  
Wind Speed 9 mph (SSE)    
Max Wind Speed 18 mph    
Max Gust Speed -    
Visibility 10 miles    
Events      
Averages and records for this station are not official NWS values.
T = Trace of Precipitation, MM = Missing Value Source: NWS Daily Summary

Daily Weather History Graph

Daily Weather History Graph

Search for Another Location

Airport or City:

Astronomy

Aug. 01, 2019 Rise Set
Actual Time 6:47 AM CDT 8:39 PM CDT
Civil Twilight 6:19 AM CDT 9:06 PM CDT
Nautical Twilight 5:45 AM CDT 9:40 PM CDT
Astronomical Twilight 5:10 AM CDT 10:15 PM CDT
Moon 7:14 AM CDT (8/1) 9:28 PM CDT (8/1)
Length of Visible Light 14h 47m
Length of Day
13h 52m
New Moon, 1% of the Moon is Illuminated
Aug 1
New Moon
Aug 7
First Quarter
Aug 15
Full
Aug 23
Last Quarter
Aug 30
New

Hourly Weather History & Observations

Time (CDT) Temp. Heat Index Dew Point Humidity Pressure Visibility Wind Dir Wind Speed Gust Speed Precip Events Conditions
12:56 AM 79.7 °F - 64.6 °F 60% 29.94 in 10.0 mi SSE 8.1 mph - N/A   Clear
1:56 AM 75.7 °F - 65.3 °F 70% 29.94 in 10.0 mi SSE 5.8 mph - N/A   Clear
2:56 AM 74.3 °F - 65.1 °F 73% 29.95 in 10.0 mi SE 6.9 mph - N/A   Clear
3:56 AM 75.0 °F - 65.3 °F 72% 29.96 in 10.0 mi ESE 6.9 mph - N/A   Clear
4:56 AM 74.3 °F - 65.5 °F 74% 29.96 in 10.0 mi SE 6.9 mph - N/A   Clear
5:56 AM 73.6 °F - 66.2 °F 78% 29.97 in 10.0 mi SE 8.1 mph - N/A   Clear
6:56 AM 72.7 °F - 67.1 °F 83% 29.98 in 10.0 mi SSE 8.1 mph - N/A   Clear
7:56 AM 75.4 °F - 68.7 °F 80% 29.98 in 10.0 mi SSE 8.1 mph - N/A   Clear
8:56 AM 79.9 °F - 69.1 °F 69% 29.99 in 10.0 mi South 11.5 mph - N/A   Clear
9:56 AM 85.1 °F 88.5 °F 68.5 °F 57% 29.99 in 10.0 mi South 12.7 mph - N/A   Scattered Clouds
10:56 AM 89.6 °F 92.2 °F 66.0 °F 46% 29.99 in 10.0 mi South 10.4 mph - N/A   Scattered Clouds
11:56 AM 93.2 °F 94.9 °F 64.4 °F 38% 29.99 in 10.0 mi South 8.1 mph - N/A   Clear
12:56 PM 96.4 °F 97.9 °F 63.3 °F 33% 29.98 in 10.0 mi South 4.6 mph - N/A   Scattered Clouds
1:56 PM 99.1 °F 101.4 °F 63.1 °F 31% 29.97 in 10.0 mi SSE 11.5 mph - N/A   Scattered Clouds
2:56 PM 100.8 °F 101.3 °F 59.5 °F 26% 29.95 in 10.0 mi SE 12.7 mph - N/A   Scattered Clouds
3:56 PM 102.2 °F 102.4 °F 59.5 °F 24% 29.93 in 10.0 mi SSE 13.8 mph - N/A   Scattered Clouds
4:56 PM 101.8 °F 102.4 °F 59.4 °F 25% 29.91 in 10.0 mi South 13.8 mph - N/A   Partly Cloudy
5:56 PM 100.9 °F 102.1 °F 60.8 °F 27% 29.90 in 10.0 mi SSE 13.8 mph - N/A   Partly Cloudy
6:56 PM 97.5 °F 98.7 °F 62.6 °F 31% 29.88 in 10.0 mi SSE 18.4 mph - N/A   Partly Cloudy
7:56 PM 93.6 °F 95.0 °F 63.3 °F 37% 29.89 in 10.0 mi SSE 17.3 mph - N/A   Clear
8:56 PM 89.2 °F 89.9 °F 62.4 °F 41% 29.89 in 10.0 mi SSE 13.8 mph - N/A   Clear
9:56 PM 86.9 °F 87.2 °F 61.7 °F 43% 29.91 in 10.0 mi SSE 12.7 mph - N/A   Clear
10:56 PM 83.7 °F 85.1 °F 64.6 °F 52% 29.94 in 10.0 mi SSE 9.2 mph - N/A   Partly Cloudy
11:56 PM 82.6 °F 84.5 °F 65.3 °F 56% 29.95 in 10.0 mi SSE 12.7 mph - N/A   Partly Cloudy